Retour au catalogue

USA 18

ActifMilitaireLEO
NORAD 16631·PAYLOAD·🇺🇸 United States

Lancé Feb 9, 1986 depuis Vandenberg Space Force Base

Loading…

Prochains Passages (prochaines 24 heures)

TLE

FraisSource: Space-Track

Époque: Sep 14, 2026, 09:41 UTC

1 16631U 86014H   26257.40403214  .00006510  00000-0  41616-3 0  9999
2 16631  63.2938 136.5226 0744485 114.2741 253.7896 13.93513579356782

Suivez USA 18 en temps réel avec AllMySat

Download on the App Store